Temperature
6 6 6 6 6 6 7 7 7 7 7 7 7 7 7 7 7 7 7 6 6 6 6 6 6 5 5 5 5 5 4 4 4 4 4 4 4 4 4 4 4 5 5
5 5 5 5 6 6 6 6 6 6 6 7 7 7 7 7 7 7 6 6 6 6 6 6 5 5 5 5 5 4 4 4 4 4 4 4 4 4 4 4 4 4 4
5 5 5 5 5 5 5 5 6 6 6 6 6 6 6 6 6 6 6 6 6 6 5 5 5 5 5 4 4 4 4 4 4 4 4 4 4 4 4 4 4 4 4
4 4 4 4 4 5 5 5 5 5 5 6 6 6 6 6 6 6 5 5 5 5 5 5 5 4 4 4 4 4 4 4 4 4 4 4 4 3 3 3 3 3 3
4 4 4 4 4 4 4 4 4 5 5 5 5 5 5 5 5 5 5 5 5 5 4 4 4 4 4 4 4 4 4 4 4 3 4 3 3 3 3 3 3 3 3
3 3 3 3 3 3 4 4 4 4 4 5 5 5 5 5 5 5 5 4 4 4 4 4 4 4 4 4 4 4 4 3 3 3 3 3 3 3 3 3 3 3 3
3 3 3 3 3 3 3 3 3 4 4 4 4 4 4 4 4 4 4 4 4 4 4 3 3 3 3 3 3 3 3 3 3 3 3 3 3 3 3 3 2 2 2
2 2 2 2 3 3 3 3 3 3 3 4 4 4 4 4 4 4 4 4 4 3 3 3 3 3 3 3 3 3 3 3 3 3 3 3 3 3 2 2 2 2 2
2 2 2 2 2 2 2 2 2 3 3 3 3 3 3 3 3 3 3 3 3 3 3 3 3 3 3 3 3 3 3 3 3 2 2 2 2 2 2 2 2 2 2
1 1 2 2 2 2 2 2 2 2 2 2 3 3 3 3 3 3 3 3 3 3 3 3 2 2 3 3 3 3 2 2 2 2 2 2 2 2 2 2 1 1 1
1 1 1 1 1 1 1 1 2 2 2 2 2 2 2 2 2 2 2 2 2 2 2 2 2 2 2 2 2 2 2 2 2 2 2 2 2 2 2 2 1 1 1
0 1 1 1 1 1 1 1 1 1 1 1 1 1 2 2 2 2 2 2 2 2 2 2 2 2 2 2 2 2 2 2 2 2 2 1 1 1 1 1 1 1 0
-0 0 0 0 0 0 0 1 1 1 1 1 1 1 1 1 1 1 1 1 1 1 1 1 1 1 2 2 1 1 1 1 1 1 1 1 1 1 1 1 1 1 1
-1 -1 -1 -1 -0 -0 -0 0 0 0 0 0 0 0 1 1 1 1 1 1 1 1 1 1 1 1 1 1 1 1 1 1 1 1 1 1 1 1 1 1 1 0 1
-1 -1 -1 -1 -1 -1 -1 -0 -0 -0 -0 -0 -0 -0 0 1 1 1 0 1 1 1 1 1 1 1 1 1 1 1 1 1 1 1 0 0 0 0 0 0 0 0 0
-2 -2 -2 -2 -2 -1 -1 -1 -1 -1 -1 -1 -1 -1 -0 -0 -0 0 0 1 1 0 1 1 1 0 0 0 1 1 1 0 0 0 0 0 0 -0 -0 -0 -0 -0 -0
-2 -2 -2 -2 -2 -2 -2 -2 -1 -1 -1 -1 -1 -1 -1 -1 -0 -0 0 0 0 0 0 0 0 0 0 0 0 0 0 0 0 0 -0 -0 -0 -1 -1 -1 -1 -1 -1
-3 -3 -3 -3 -3 -2 -2 -2 -2 -2 -2 -1 -1 -1 -1 -1 -1 -1 -1 -0 -0 -0 -0 -0 -0 -0 -0 -0 -0 -0 -0 -0 -0 -0 -0 -1 -1 -1 -1 -1 -1 -1 -1
-3 -3 -3 -3 -3 -3 -2 -2 -2 -2 -2 -2 -2 -2 -2 -1 -1 -1 -1 -1 -1 -1 -1 -1 -1 -1 -1 -1 -1 -1 -1 -1 -0 -1 -1 -1 -1 -1 -1 -1 -1 -1 -1
-3 -3 -3 -3 -3 -3 -3 -3 -3 -3 -3 -3 -2 -2 -2 -2 -2 -2 -2 -2 -2 -1 -1 -1 -1 -1 -1 -1 -1 -1 -1 -1 -1 -1 -1 -1 -1 -1 -1 -1 -1 -1 -2
-4 -4 -4 -4 -4 -4 -3 -3 -3 -3 -3 -3 -3 -3 -3 -2 -2 -2 -2 -2 -2 -2 -2 -2 -2 -1 -1 -1 -1 -1 -1 -1 -1 -1 -1 -1 -1 -1 -2 -2 -2 -2 -2
-4 -4 -4 -4 -4 -4 -4 -4 -3 -3 -3 -3 -3 -3 -3 -3 -3 -3 -3 -3 -2 -2 -2 -2 -2 -2 -2 -1 -1 -1 -1 -1 -1 -1 -1 -1 -1 -2 -2 -2 -2 -2 -2
-5 -5 -5 -5 -5 -5 -4 -4 -4 -4 -4 -4 -4 -3 -3 -3 -3 -3 -3 -3 -3 -3 -3 -2 -2 -2 -2 -2 -2 -2 -2 -2 -2 -2 -2 -2 -1 -2 -2 -2 -2 -2 -2
-5 -5 -5 -5 -5 -5 -5 -5 -4 -4 -4 -4 -4 -4 -4 -4 -4 -3 -3 -3 -3 -3 -3 -3 -3 -2 -2 -2 -2 -2 -2 -2 -2 -2 -2 -2 -2 -2 -2 -2 -2 -2 -3
-6 -6 -6 -6 -6 -5 -5 -5 -5 -5 -5 -5 -4 -4 -4 -4 -4 -4 -4 -3 -3 -3 -3 -3 -3 -3 -2 -2 -2 -2 -2 -2 -2 -2 -2 -2 -2 -2 -2 -2 -2 -3 -3
-6 -6 -6 -6 -6 -6 -6 -6 -5 -5 -5 -5 -5 -5 -4 -4 -4 -4 -4 -4 -4 -3 -3 -3 -3 -3 -3 -3 -2 -2 -2 -2 -2 -2 -2 -2 -2 -2 -2 -2 -3 -3 -3
Wind_Speed
2 2 2 2 2 1 1 1 1 1 0 1 1 0 1 1 1 1 1 2 2 2 1 2 2 1 1 2 2 2 2 2 4 4 3 3 4 5 5 6 7 6 8
2 2 2 2 2 2 1 1 1 1 0 1 1 1 0 1 1 1 2 1 2 2 2 2 2 2 2 2 2 2 2 2 2 5 4 3 4 4 4 5 5 6 6
2 2 2 2 2 2 2 2 2 2 1 0 1 1 1 1 1 1 1 2 2 3 3 2 2 2 3 2 2 2 2 2 2 2 4 3 3 3 4 5 5 4 6
2 2 2 2 2 2 2 2 2 2 1 0 1 1 1 1 1 1 1 1 2 2 2 2 2 2 3 3 2 3 2 2 2 1 3 3 3 3 3 4 5 5 5
1 1 1 2 2 2 2 2 2 2 1 1 0 0 0 1 1 1 1 1 2 2 2 2 2 2 2 2 2 2 2 2 1 1 2 3 3 3 4 3 5 5 5
2 1 1 1 2 2 2 2 2 2 2 1 1 0 1 1 2 2 2 1 1 1 2 2 1 1 2 2 3 3 3 2 2 1 2 3 4 3 3 4 4 5 4
2 2 2 2 1 2 2 2 1 2 2 1 1 1 1 2 2 2 2 1 1 1 1 1 2 2 2 1 2 3 3 4 3 2 2 3 3 3 3 3 4 4 4
2 2 2 2 2 2 2 2 2 1 1 1 1 1 1 2 2 2 3 1 1 1 1 1 1 2 2 1 1 2 2 3 3 2 1 2 2 2 1 2 3 3 3
2 2 2 2 2 2 2 2 2 2 2 1 1 1 1 1 2 2 2 1 1 1 1 1 1 1 2 1 1 1 2 3 4 5 4 4 4 4 4 3 3 3 4
3 3 3 2 2 2 2 2 2 2 2 1 1 1 1 1 1 2 2 1 1 1 1 1 1 2 2 1 1 1 1 2 2 3 4 5 4 4 6 3 1 2 3
3 3 3 2 2 2 1 1 2 2 1 1 1 1 1 1 1 1 2 1 1 1 1 1 1 3 3 1 0 1 1 0 1 1 2 3 3 3 4 4 3 1 2
3 3 3 3 2 2 1 1 1 1 1 1 1 1 1 1 1 1 1 2 2 1 1 1 1 2 3 2 1 2 2 2 1 1 2 2 3 3 3 4 3 3 2
2 3 3 3 3 2 1 1 1 1 1 1 1 1 1 1 1 2 2 2 2 1 1 1 2 2 3 2 2 3 2 1 1 1 1 1 2 2 2 3 4 4 4
2 2 2 2 2 2 2 1 1 1 1 1 1 1 2 2 1 1 1 1 1 1 1 1 2 3 3 3 2 2 1 1 1 1 1 1 2 2 2 3 3 3 3
2 2 2 2 2 2 1 1 1 1 1 1 1 2 2 2 3 3 2 1 1 0 1 1 1 1 2 2 2 2 1 2 2 2 1 2 2 2 3 3 3 3 3
2 2 2 2 2 2 1 2 3 2 3 3 3 2 2 3 3 3 2 2 0 2 2 1 1 1 1 1 1 1 1 1 2 2 1 1 1 2 2 3 3 2 3
2 2 2 2 2 2 2 1 1 3 4 4 4 3 3 3 2 1 1 1 2 3 2 1 1 0 0 1 1 1 1 1 1 1 1 1 1 2 2 2 2 2 3
2 2 2 2 2 2 2 1 1 1 2 2 3 3 4 3 2 1 2 2 2 2 1 1 1 1 1 1 1 1 1 1 1 1 1 1 1 1 1 2 2 2 3
2 2 2 2 2 1 1 1 1 1 1 2 2 3 4 3 2 2 2 2 1 1 1 1 1 1 1 1 1 1 1 1 1 1 1 1 1 1 1 2 2 3 3
2 3 3 2 1 1 1 1 1 1 1 1 2 2 2 2 1 1 1 1 1 0 0 0 0 0 0 0 0 0 0 1 1 1 1 1 1 1 1 1 1 2 2
2 2 3 2 1 1 1 1 1 1 1 2 2 2 2 1 1 1 1 1 0 0 0 0 0 0 0 0 0 0 0 0 1 1 1 1 1 1 1 1 1 1 2
2 2 2 2 1 1 2 1 1 2 2 2 2 2 2 1 1 1 1 1 1 1 0 1 1 1 1 1 1 1 1 1 1 1 1 1 1 1 1 1 1 1 1
2 2 2 2 2 2 2 1 1 2 1 1 1 1 1 1 1 1 1 1 1 1 1 0 1 1 1 1 1 1 1 2 2 2 1 1 1 1 1 1 1 1 1
2 2 2 2 2 2 2 2 2 2 1 1 1 1 1 1 1 1 1 1 1 1 1 1 1 1 1 1 1 1 1 1 1 1 1 1 2 1 1 1 1 1 1
2 2 2 2 2 2 2 2 2 1 1 1 1 1 1 1 1 1 1 1 1 1 1 1 1 1 1 1 1 1 2 1 0 0 2 1 2 2 2 2 1 1 1
2 2 2 2 2 2 2 2 2 2 2 2 1 1 1 2 2 1 1 1 1 1 1 1 2 2 2 1 1 1 1 1 0 0 1 1 1 2 1 1 1 1 1
Wind_Direction
70 62 53 42 33 38 54 24 350 352 115 157 155 178 183 195 219 221 236 217 216 227 237 246 259 278 281 277 275 277 279 274 286 304 313 322 326 332 337 345 347 345 347
56 56 51 45 25 19 25 4 354 24 109 159 142 134 193 218 216 221 246 264 226 221 227 231 250 260 270 275 270 269 275 271 275 300 313 321 319 325 336 342 348 349 349
47 49 45 29 20 15 14 6 13 25 16 65 135 164 201 235 230 244 246 256 251 227 220 224 241 246 260 277 281 286 288 297 292 288 307 316 321 331 342 339 337 339 344
44 46 43 19 15 13 9 4 5 6 360 315 202 190 194 210 246 280 275 262 263 254 231 226 236 243 252 264 275 283 294 299 306 300 312 319 322 323 340 336 334 337 338
38 36 26 22 19 9 359 4 0 349 338 324 346 169 202 204 254 307 300 282 258 271 254 232 239 264 292 295 295 295 301 300 305 308 309 322 327 330 323 318 323 327 330
25 13 27 33 10 354 350 356 354 341 337 343 338 312 310 284 303 334 339 286 280 266 266 248 255 254 293 315 328 333 325 288 271 283 311 304 303 308 315 322 327 334 327
14 13 32 23 358 345 337 340 329 326 331 329 327 314 288 302 318 324 333 311 278 279 281 266 275 293 301 281 334 350 342 337 323 275 267 285 292 299 305 313 321 326 313
15 20 10 1 348 341 331 321 314 315 307 306 309 316 320 313 326 327 340 328 291 296 298 291 276 283 278 316 351 352 349 346 334 343 278 288 309 313 295 291 306 331 328
11 4 353 343 327 321 312 304 305 303 300 294 299 308 306 285 305 329 357 319 326 324 320 314 319 294 327 36 80 350 345 346 11 20 14 18 15 22 33 29 8 360 339
353 349 339 326 308 295 293 299 309 292 284 299 308 304 294 281 307 336 3 320 317 326 331 340 14 1 341 53 177 197 277 319 2 14 23 26 34 37 35 39 3 343 336
350 348 339 328 309 297 295 307 310 310 308 312 314 321 324 330 318 350 5 345 301 301 321 333 334 1 6 7 37 223 226 58 41 41 32 25 21 24 21 24 20 344 325
352 347 340 335 328 335 329 314 310 321 314 305 327 337 344 340 335 328 353 356 349 288 286 305 330 2 19 32 77 61 71 69 69 58 42 24 13 5 357 5 14 18 7
350 344 340 342 344 344 340 321 317 310 286 299 319 314 325 334 309 320 327 342 2 358 329 1 17 34 37 41 57 63 62 66 73 58 33 357 346 343 0 10 14 18 10
340 339 342 349 348 354 357 351 335 302 278 279 285 291 305 317 316 315 316 329 13 22 32 55 62 65 47 40 60 51 39 54 68 53 13 1 2 8 8 3 357 355 356
328 334 340 337 331 341 355 359 327 317 291 282 268 272 274 283 301 309 319 316 334 28 75 72 60 55 43 26 23 28 35 46 42 30 41 27 15 12 1 358 359 357 355
322 330 333 326 320 326 339 357 8 354 357 346 337 321 308 306 311 305 305 303 259 128 102 121 122 90 57 23 12 18 24 27 26 35 37 24 13 3 356 355 358 355 346
315 314 316 311 308 305 306 299 332 349 360 1 354 351 344 337 334 330 346 86 117 116 92 103 109 92 348 356 5 1 351 360 18 32 27 13 6 352 349 349 351 354 347
315 308 305 298 300 293 287 283 279 301 320 333 338 344 350 350 356 30 70 93 82 74 61 77 43 18 9 3 356 353 0 19 25 7 4 1 353 339 339 339 339 341 340
306 301 297 295 298 303 304 300 298 299 303 318 335 343 352 355 20 41 76 86 107 68 42 29 13 354 359 354 3 14 16 352 345 335 322 331 326 332 319 322 330 344 353
302 301 302 294 294 298 300 294 290 289 296 303 310 321 337 353 360 7 21 54 94 72 12 326 317 301 327 360 17 27 11 2 343 306 297 306 305 302 296 304 323 332 332
299 294 294 292 272 265 264 266 271 276 279 283 289 301 323 317 317 332 342 354 345 230 257 288 303 291 300 291 296 264 264 293 303 299 284 280 277 289 293 295 311 328 337
279 281 277 272 272 265 259 255 251 256 265 272 296 299 300 323 321 318 322 324 323 313 271 247 274 272 263 249 238 241 240 265 278 288 295 278 261 276 287 286 314 331 345
268 266 271 279 275 264 266 257 251 253 259 269 281 291 293 296 294 290 295 310 319 330 340 298 263 274 330 325 281 221 226 243 251 248 256 266 262 252 255 261 271 306 328
264 260 258 263 264 255 251 247 250 253 250 257 268 273 272 274 282 289 290 302 307 321 338 326 273 249 276 328 308 264 259 272 267 220 203 224 239 237 237 252 258 269 287
272 263 258 256 256 255 253 250 249 255 255 258 262 269 272 274 272 277 288 277 276 284 303 319 316 290 270 280 299 301 295 292 295 177 177 183 219 220 217 229 236 256 274
272 269 263 256 252 253 250 249 248 249 253 262 265 265 266 269 271 267 276 278 283 276 283 308 309 310 300 276 270 281 283 278 266 144 149 166 202 218 212 215 223 230 226
Height
1483 1484 1485 1486 1487 1487 1488 1489 1490 1490 1491 1491 1492 1493 1493 1494 1494 1495 1495 1495 1496 1496 1496 1496 1495 1495 1495 1494 1494 1493 1492 1491 1488 1485 1484 1482 1480 1478 1476 1473 1471 1468 1466
1482 1482 1483 1484 1484 1485 1486 1486 1487 1487 1488 1489 1489 1490 1490 1491 1491 1492 1492 1492 1492 1493 1493 1493 1492 1492 1492 1491 1491 1490 1489 1488 1486 1483 1481 1480 1478 1476 1474 1472 1469 1467 1465
1480 1481 1481 1482 1482 1483 1483 1484 1484 1485 1485 1486 1486 1487 1487 1488 1488 1489 1489 1490 1490 1489 1490 1489 1489 1489 1488 1488 1488 1487 1486 1486 1484 1482 1479 1477 1476 1474 1472 1470 1468 1465 1463
1479 1479 1480 1480 1480 1481 1481 1482 1482 1482 1483 1483 1484 1484 1485 1485 1485 1486 1486 1486 1486 1487 1487 1486 1486 1486 1485 1485 1485 1484 1484 1482 1481 1479 1477 1475 1474 1472 1470 1467 1465 1463 1461
1477 1478 1478 1478 1479 1479 1479 1479 1480 1480 1480 1481 1481 1482 1482 1482 1483 1483 1483 1483 1483 1483 1483 1483 1483 1483 1483 1483 1482 1481 1481 1479 1478 1476 1475 1473 1471 1470 1468 1466 1464 1461 1459
1476 1476 1476 1476 1476 1477 1477 1477 1477 1477 1478 1478 1478 1479 1479 1480 1480 1480 1481 1480 1480 1480 1480 1480 1480 1480 1480 1480 1479 1479 1478 1477 1475 1474 1473 1471 1470 1469 1467 1465 1463 1460 1456
1474 1474 1474 1474 1475 1475 1475 1475 1475 1475 1475 1475 1476 1476 1476 1477 1477 1477 1477 1477 1477 1477 1477 1477 1477 1477 1477 1477 1476 1476 1475 1474 1474 1473 1471 1470 1469 1468 1466 1464 1462 1460 1457
1472 1472 1472 1473 1473 1472 1472 1472 1472 1472 1472 1473 1473 1473 1474 1474 1474 1474 1474 1474 1474 1474 1474 1474 1474 1474 1474 1474 1473 1472 1472 1471 1471 1471 1470 1469 1468 1467 1465 1464 1461 1459 1457
1470 1470 1470 1470 1470 1470 1470 1470 1470 1470 1470 1470 1471 1471 1471 1471 1471 1471 1471 1471 1471 1471 1471 1471 1471 1471 1472 1471 1471 1470 1469 1468 1468 1468 1468 1467 1466 1465 1464 1462 1459 1457 1454
1468 1468 1468 1468 1468 1468 1468 1468 1468 1468 1468 1468 1468 1468 1469 1469 1469 1468 1468 1468 1468 1468 1468 1468 1468 1469 1469 1468 1468 1467 1466 1465 1466 1465 1465 1465 1464 1463 1462 1460 1458 1456 1454
1466 1466 1466 1466 1465 1465 1465 1465 1465 1465 1465 1465 1465 1466 1466 1466 1466 1466 1466 1465 1465 1465 1465 1465 1465 1466 1466 1465 1465 1465 1464 1464 1464 1463 1463 1462 1461 1461 1460 1458 1457 1456 1454
1464 1463 1463 1463 1463 1463 1463 1463 1463 1463 1463 1463 1463 1463 1463 1463 1463 1463 1463 1463 1463 1463 1463 1463 1463 1463 1463 1463 1462 1462 1462 1462 1462 1461 1461 1460 1459 1459 1458 1457 1456 1455 1453
1461 1461 1461 1460 1460 1460 1460 1460 1460 1460 1460 1460 1460 1460 1461 1461 1461 1461 1461 1461 1461 1461 1461 1461 1461 1461 1460 1460 1460 1460 1460 1460 1459 1459 1459 1458 1458 1457 1457 1455 1454 1453 1452
1459 1458 1458 1458 1458 1458 1458 1458 1458 1458 1458 1458 1458 1458 1458 1459 1459 1459 1459 1458 1458 1458 1458 1458 1458 1458 1459 1458 1458 1458 1458 1458 1458 1458 1457 1457 1457 1456 1455 1454 1452 1451 1449
1457 1456 1456 1455 1455 1455 1455 1456 1456 1456 1456 1456 1456 1456 1456 1456 1457 1457 1456 1456 1456 1456 1456 1456 1456 1456 1456 1456 1456 1456 1456 1456 1456 1456 1456 1455 1455 1454 1453 1452 1451 1449 1448
1454 1454 1453 1453 1453 1453 1453 1453 1453 1454 1454 1454 1454 1454 1454 1454 1454 1454 1454 1454 1454 1454 1454 1453 1453 1453 1454 1454 1454 1454 1455 1455 1455 1455 1455 1454 1453 1453 1452 1451 1450 1448 1446
1452 1452 1452 1452 1452 1451 1451 1451 1450 1451 1451 1451 1451 1451 1451 1451 1451 1451 1451 1452 1452 1452 1452 1451 1452 1452 1452 1452 1453 1453 1453 1454 1454 1454 1453 1453 1452 1452 1451 1450 1448 1447 1446
1450 1450 1450 1450 1449 1449 1449 1449 1448 1448 1448 1448 1448 1448 1449 1449 1449 1449 1449 1450 1449 1449 1450 1450 1450 1450 1451 1451 1451 1451 1452 1452 1452 1452 1452 1451 1451 1450 1449 1448 1447 1446 1445
1447 1447 1447 1447 1447 1447 1447 1446 1446 1446 1446 1446 1446 1446 1446 1446 1447 1447 1447 1447 1447 1447 1448 1448 1448 1449 1449 1449 1449 1450 1450 1450 1450 1450 1450 1449 1449 1449 1448 1447 1446 1445 1444
1445 1444 1444 1444 1444 1444 1444 1444 1444 1444 1444 1443 1443 1443 1444 1444 1444 1444 1444 1445 1445 1445 1446 1446 1447 1447 1447 1447 1448 1448 1448 1448 1448 1448 1448 1448 1447 1447 1447 1446 1445 1444 1443
1442 1441 1442 1441 1441 1441 1441 1441 1441 1441 1441 1441 1441 1441 1442 1442 1441 1442 1442 1442 1443 1443 1444 1444 1444 1445 1445 1445 1445 1445 1446 1446 1446 1446 1446 1446 1445 1445 1445 1445 1444 1443 1442
1439 1439 1438 1438 1438 1438 1438 1439 1439 1439 1439 1439 1439 1439 1439 1439 1439 1439 1440 1440 1441 1441 1442 1442 1442 1443 1443 1443 1443 1443 1443 1443 1444 1444 1444 1444 1444 1444 1443 1443 1442 1442 1441
1436 1436 1435 1435 1435 1435 1435 1436 1436 1436 1436 1436 1436 1436 1436 1437 1437 1437 1437 1438 1438 1439 1439 1440 1440 1440 1441 1441 1441 1442 1442 1442 1442 1442 1442 1442 1442 1441 1441 1441 1440 1440 1439
1433 1432 1432 1432 1432 1432 1432 1432 1433 1433 1433 1433 1433 1434 1434 1434 1435 1435 1435 1435 1436 1436 1437 1437 1438 1438 1438 1439 1439 1439 1440 1440 1440 1440 1440 1440 1439 1439 1439 1439 1439 1438 1438
1430 1429 1429 1429 1429 1429 1429 1429 1430 1430 1430 1430 1431 1431 1431 1432 1432 1432 1433 1433 1433 1434 1434 1435 1435 1436 1436 1436 1437 1437 1437 1437 1437 1437 1437 1437 1437 1437 1437 1437 1437 1436 1436
1426 1426 1426 1426 1426 1426 1426 1426 1427 1427 1427 1428 1428 1428 1429 1429 1429 1430 1430 1430 1431 1431 1432 1432 1433 1433 1433 1434 1434 1434 1434 1434 1434 1434 1434 1434 1434 1434 1435 1434 1434 1434 1434